User: anonymous   Login
Location: Oshawa
(43.9000°N, 78.8670°W)
Time: 17:30:03
(UTC-05:00)
Language:

Cosmos 1707 Rocket - Orbit

View from above orbital plane
View from above orbital plane
View from above satellite
View from above satellite

Ground track
Ground track

The orbit data is extracted from the following two-line orbital elements,

1 16327U 85113B   15025.51235561  .00000361  00000-0  41425-4 0  5703
2 16327 082.5346 188.9920 0018549 353.3509 063.9935 14.83011499572370
Epoch (UTC): 25 January 2015 12:17:47
Eccentricity: 0.0018549
inclination: 82.5346°
perigee height: 607 km
apogee height: 633 km
right ascension of ascending node: 188.9920°
argument of perigee: 353.3509°
revolutions per day: 14.83011499
mean anomaly at epoch: 63.9935°
orbit number at epoch: 57237

The dashed part of the orbit path shows where the satellite is in the earth's shadow,  

DLR